This demonstration page uses our WeatherBlox Daily Observations layout. Learn more.

Left ArrowRight Arrow

Hourly Observations for June 9, 2021

Temp ( °F °C ) Dew Point ( °F °C ) Humidity (%) Winds ( mph kmh ) Pressure ( in mb ) Visibility ( mi km ) Precip ( " mm )
12:15 am 00:15 Clear 70 21.3 63 17.3 78 78 SE 7 11 29.88 1012 10 16 N/A
12:35 am 00:35 Clear 70 21.2 63 17.2 78 78 SE 8 13 29.88 1012 10 16 N/A
12:55 am 00:55 Clear 70 21.3 63 17.3 78 78 SE 8 13 29.88 1012 10 16 N/A
1:15 am 01:15 Clear 70 21.3 63 17.3 78 78 SE 9 15 29.88 1012 10 16 N/A
1:35 am 01:35 Clear 70 21.2 63 17.3 79 79 SE 8 13 29.88 1012 10 16 N/A
1:55 am 01:55 Clear 69 20.7 63 17.3 81 81 SE 7 11 29.89 1012 10 16 N/A
2:15 am 02:15 Clear 68 20.1 63 17.3 84 84 SE 8 13 29.90 1012 10 16 N/A
2:35 am 02:35 Clear 68 20.2 64 17.5 85 85 SE 8 13 29.90 1012 10 16 N/A
2:55 am 02:55 Clear 68 20.1 64 17.5 85 85 SE 9 15 29.89 1012 10 16 N/A
3:15 am 03:15 Clear 68 20 64 17.5 86 86 SE 7 11 29.90 1012 10 16 N/A
3:35 am 03:35 Clear 68 20.2 64 17.6 85 85 SE 8 13 29.90 1012 10 16 N/A
3:55 am 03:55 Clear 68 20 64 17.6 86 86 SE 9 15 29.89 1012 10 16 N/A
4:15 am 04:15 Clear 68 19.8 64 17.6 87 87 SE 6 9 29.91 1013 10 16 N/A
4:35 am 04:35 Clear 67 19.3 64 17.5 89 89 SE 5 7 29.91 1013 10 16 N/A
4:55 am 04:55 Clear 66 19.1 64 17.5 91 91 SE 6 9 29.92 1013 10 16 N/A
5:15 am 05:15 Clear 66 19 63 17.3 90 90 N N/A 29.94 1014 10 16 N/A
5:35 am 05:35 Mostly Cloudy 66 18.7 63 17.2 91 91 N N/A 29.95 1014 10 16 N/A
5:55 am 05:55 Cloudy 66 19 64 17.6 92 92 N N/A 29.94 1014 10 16 N/A
6:15 am 06:15 Mostly Cloudy 66 19 64 17.6 92 92 ESE 5 7 29.95 1014 10 16 N/A
6:35 am 06:35 Partly Cloudy 66 19 64 17.6 92 92 E 3 6 29.95 1014 10 16 N/A
6:55 am 06:55 Partly Cloudy 67 19.4 64 17.8 91 91 ESE 6 9 29.94 1014 10 16 N/A
7:15 am 07:15 Mostly Cloudy 68 20 65 18.1 89 89 ESE 6 9 29.94 1014 10 16 N/A
7:35 am 07:35 Partly Cloudy 69 20.7 65 18.5 87 87 SE 8 13 29.93 1014 10 16 N/A
7:55 am 07:55 Partly Cloudy 71 21.4 66 18.8 85 85 SE 9 15 29.93 1013 10 16 N/A
8:15 am 08:15 Sunny 73 22.6 67 19.5 83 83 SE 9 15 29.92 1013 10 16 N/A
8:35 am 08:35 Sunny 74 23.5 67 19.6 79 79 SE 10 17 29.92 1013 10 16 N/A
8:55 am 08:55 Sunny 76 24.5 67 19.6 74 74 ESE 10 17 29.92 1013 10 16 N/A
9:15 am 09:15 Sunny 77 25.2 67 19.5 71 71 SE 12 19 29.91 1013 10 16 N/A
9:35 am 09:35 Sunny 78 25.8 66 19.1 67 67 SE 17 28 29.91 1013 10 16 N/A
9:55 am 09:55 Sunny 80 26.6 66 19.1 64 64 SSE 16 26 29.90 1013 10 16 N/A
10:15 am 10:15 Sunny 80 26.9 66 18.7 61 61 SE 16 26 29.91 1013 10 16 N/A
10:35 am 10:35 Sunny 81 27 65 18.6 60 60 SE 14 22 29.90 1013 10 16 N/A
10:55 am 10:55 Sunny 82 27.8 65 18.6 57 57 SSE 14 22 29.89 1012 10 16 N/A
11:15 am 11:15 Sunny 82 28 65 18.3 56 56 SSE 15 24 29.89 1012 10 16 N/A
11:35 am 11:35 Sunny 83 28.3 64 17.7 53 53 SE 17 28 29.89 1012 10 16 N/A
11:55 am 11:55 Sunny 84 28.7 65 18.2 53 53 SE 9 15 29.90 1012 10 16 N/A
12:15 pm 12:15 Sunny 84 29.1 65 18.2 52 52 SE 12 19 29.89 1012 10 16 N/A
12:35 pm 12:35 Sunny 85 29.5 64 17.7 49 49 SE 16 26 29.88 1012 10 16 N/A
12:55 pm 12:55 Sunny 85 29.5 64 17.9 50 50 SE 12 19 29.88 1012 10 16 N/A
1:15 pm 13:15 Sunny 86 30 64 17.8 48 48 SE 13 20 29.87 1011 10 16 N/A
1:35 pm 13:35 Sunny 86 30.2 64 17.5 47 47 SSE 13 20 29.88 1012 10 16 N/A
1:55 pm 13:55 Sunny 87 30.4 63 17.3 45 45 SSE 14 22 29.86 1011 10 16 N/A
2:15 pm 14:15 Sunny 86 30.2 64 17.6 47 47 SE 12 19 29.87 1011 10 16 N/A
2:35 pm 14:35 Sunny 88 31 64 17.5 44 44 SSE 10 17 29.86 1011 10 16 N/A
2:55 pm 14:55 Partly Cloudy 88 31 65 18.1 46 46 SSE 9 15 29.85 1011 10 16 N/A
3:15 pm 15:15 Partly Cloudy 88 31.1 63 17.2 43 43 S 9 15 29.85 1011 10 16 N/A
3:35 pm 15:35 Partly Cloudy 88 31.2 64 17.8 45 45 SSE 12 19 29.85 1011 10 16 N/A
3:55 pm 15:55 Sunny 88 31.2 64 17.5 44 44 SE 7 11 29.85 1011 10 16 N/A
4:15 pm 16:15 Partly Cloudy 89 31.4 64 17.8 44 44 S 7 11 29.84 1010 10 16 N/A
4:35 pm 16:35 Mostly Cloudy 89 31.7 64 17.5 43 43 SSW 10 17 29.82 1010 10 16 N/A
4:55 pm 16:55 Partly Cloudy 89 31.5 63 17.1 42 42 SSW 5 7 29.83 1010 10 16 N/A
5:15 pm 17:15 Mostly Cloudy 89 31.6 64 17.5 43 43 S 7 11 29.83 1010 10 16 N/A
5:35 pm 17:35 Cloudy 87 30.5 64 17.9 47 47 SE 7 11 29.83 1010 10 16 N/A
5:55 pm 17:55 Cloudy 88 31.1 65 18.3 46 46 ESE 7 11 29.82 1010 10 16 N/A
6:15 pm 18:15 Mostly Cloudy 88 31 65 18.2 46 46 SSE 8 13 29.82 1010 10 16 N/A
6:35 pm 18:35 Partly Cloudy 87 30.5 65 18.2 48 48 SE 8 13 29.82 1010 10 16 N/A
6:55 pm 18:55 Partly Cloudy 88 31 65 18.1 46 46 SE 8 13 29.81 1009 10 16 N/A
7:15 pm 19:15 Sunny 88 31 64 18 46 46 SSE 7 11 29.82 1010 10 16 N/A
7:35 pm 19:35 Sunny 87 30.6 64 17.8 46 46 SSE 8 13 29.81 1010 10 16 N/A
7:55 pm 19:55 Sunny 86 30.1 65 18.2 49 49 SE 9 15 29.82 1010 10 16 N/A
8:15 pm 20:15 Sunny 85 29.5 65 18.4 51 51 SE 8 13 29.82 1010 10 16 N/A
8:35 pm 20:35 Sunny 84 28.9 65 18.2 52 52 SE 8 13 29.84 1010 10 16 N/A
8:55 pm 20:55 Sunny 82 28 65 18.5 56 56 SSE 8 13 29.84 1011 10 16 N/A
9:15 pm 21:15 Clear 80 26.5 65 18.5 62 62 SE 7 11 29.85 1011 10 16 N/A
9:35 pm 21:35 Clear 80 26.6 65 18.5 61 61 SE 7 11 29.86 1011 10 16 N/A
9:55 pm 21:55 Clear 79 26.3 65 18.6 63 63 SE 7 11 29.87 1011 10 16 N/A
10:15 pm 22:15 Clear 78 25.6 65 18.6 65 65 SE 7 11 29.87 1012 10 16 N/A
10:35 pm 22:35 Clear 78 25.4 65 18.6 66 66 SE 8 13 29.88 1012 10 16 N/A
10:55 pm 22:55 Clear 77 24.9 66 18.7 69 69 SE 7 11 29.90 1012 10 16 N/A
11:15 pm 23:15 Clear 77 24.8 66 18.7 69 69 SE 8 13 29.89 1012 10 16 N/A
11:35 pm 23:35 Clear 77 24.9 66 18.7 69 69 SE 8 13 29.89 1012 10 16 N/A
11:55 pm 23:55 Clear 76 24.6 66 18.8 70 70 SE 8 13 29.89 1012 10 16 N/A

Powered by AerisWeather